Flag for Germany Weather past 2 weeks in Heinsberg, North Rhine-Westphalia, Germany

Now
55 °F

Partly sunny.


Feels Like: 53 °F
Forecast: 45 / 59 °F
Wind: 9 mph from Southwest

Location: Geilenkirchen Airport

Current Time: Oct 23, 2014 at 2:34:48 PM

Latest Report: Oct 23, 2014 at 1:50 PM


Visibility: N/A

Pressure: 30.24 "Hg

Humidity: 77%

Dew point: 48 °F

Location of HeinsbergLocation

Historic Weather in Heinsberg — Graph

°F

Heinsberg temperature yesterday

Maximum temperature yesterday: 54 °F (at 1:50 PM)
Minimum temperature yesterday: 43 °F (at 2:50 AM)
Average temperature yesterday: 48 °F

Past Weeks' High & Low Weather Summary

 TemperatureHumidityPressure
High75 °F (Oct 18, 2:50 PM)100% (Oct 8, 12:50 PM)30.24 "Hg (Oct 8, 12:50 PM)
Low43 °F (Oct 22, 2:50 AM)0% (Oct 12, 11:50 PM)29.53 "Hg (Oct 21, 3:50 PM)
Average58 °F83%29.86 "Hg
* Reported Oct 8 12:50 PM — Oct 23 12:50 PM, Heinsberg, Weather by CustomWeather, © 2014

Note: Actual official high and low records may vary slightly from our data, if they occured in-between our weather recording intervals... More about our weather records

Advertising

Heinsberg weather history for previous 24 hours

 ConditionsComfort  
Time TempWeatherWind HumidityBarometerVisibility
12:50 PM
Oct 23
54 °FPartly sunny.9 mph82%30.24 "HgN/A
11:50 AM52 °FPartly sunny.8 mph82%30.24 "HgN/A
10:50 AM52 °FBroken clouds.8 mph82%30.24 "HgN/A
9:50 AM50 °FSunny.8 mph82%30.24 "Hg10 mi
8:50 AM50 °FClear.7 mph82%30.24 "Hg10 mi
7:50 AM50 °FPassing clouds.6 mph88%30.21 "HgN/A
6:50 AM50 °FPassing clouds.7 mph88%30.21 "HgN/A
5:50 AM48 °FPassing clouds.5 mph94%30.21 "Hg5 mi
4:50 AM48 °FPassing clouds.6 mph94%30.21 "Hg6 mi
3:50 AM48 °FPassing clouds.7 mph87%30.21 "Hg6 mi
2:50 AM48 °FClear.6 mph87%30.21 "Hg10 mi
1:50 AM48 °FClear.7 mph87%30.21 "Hg10 mi
12:50 AM48 °FClear.7 mph87%30.21 "Hg10 mi
11:50 PM
Oct 22
48 °FClear.7 mph87%30.21 "Hg10 mi
10:50 PM50 °FClear.8 mph88%30.21 "Hg10 mi
9:50 PM50 °FClear.9 mph100%30.18 "Hg10 mi
8:50 PM48 °FPassing clouds.8 mph94%30.18 "HgN/A
7:50 PM50 °FPassing clouds.12 mph82%30.15 "HgN/A
6:50 PM50 °FPartly sunny.10 mph82%30.15 "HgN/A
5:50 PM52 °FBroken clouds.10 mph82%30.15 "HgN/A
4:50 PM52 °FPassing clouds.15 mph82%30.12 "HgN/A
3:50 PM54 °FScattered clouds.20 mph77%30.12 "HgN/A
2:50 PM54 °FScattered clouds.18 mph77%30.09 "HgN/A
Weather by CustomWeather, © 2014

See weather overviewHow to use our weather pages